Location: Dammartin
(48.9032°N, 1.6195°E)
Time: 13:21:07
(UTC+00:00)

YUBILEINY - Pass Details

Date: 08 December 2023
Orbit: 1479 x 1508 km, 82.5° (Epoch: 02 March)

Event Time Altitude Azimuth Distance (km) Brightness Sun altitude
Rises 16:59:38 0° 351° (N) 4,632 ? -9.8°
Reaches altitude 10° 17:04:58 10° 18° (NNE) 3,642 ? -10.7°
Maximum altitude 17:08:41 13° 44° (NE) 3,397 ? -11.2°
Enters shadow 17:10:07 13° 54° (NE) 3,431 ? -11.4°
